Location: Wien
(48.2082°N, 16.3738°E)
Time: 06:10:09
(UTC+02:00)

nSIGHT-1 - Visible Passes

Search period start: 25 May 2019 00:00
Search period end: 04 June 2019 00:00
Orbit: 353 x 362 km, 51.6° (Epoch: 24 May)

Date Brightness Start Highest point End Pass type
(mag) Time Alt. Az. Time Alt. Az. Time Alt. Az.
25 May ? 21:24:58 10° WNW 21:27:55 79° SSW 21:30:53 10° ESE visible
25 May ? 23:01:16 10° WSW 23:02:35 14° SW 23:02:35 14° SW visible
26 May ? 21:53:16 10° W 21:55:56 31° SW 21:57:46 16° SSE visible
27 May ? 22:22:29 10° WSW 22:23:42 12° SW 22:24:40 11° SSW visible
29 May ? 21:44:11 10° SW 21:44:20 10° SW 21:44:29 10° SW visible
